Lobo

Go HERE for most recent data if this page is not up to date.

Jump to table bottom
Date/Time Temp deg F RH % 24 Hr Snow (in) Snow Depth (in) H2O (in)
03/04 20:00 6.2 82 1.2 50.2 0.04
03/04 19:00 6.9 78 0.3 49.2 0.02
03/04 18:00 7.6 79 0.0 49.3 0.02
03/04 17:00 8.6 69 -0.1 49.0 0.00
03/04 16:00 9.3 76 0.2 49.1 0.01
03/04 15:00 9.7 81 -0.0 49.1 0.01
03/04 14:00 12.2 49 -0.3 48.7 0.00
03/04 13:00 13.1 47 -0.1 48.8 0.00
03/04 12:00 11.7 40 -0.2 48.8 0.00
03/04 11:00 10.1 47 0.0 49.1 0.00
03/04 10:00 8.0 53 0.0 49.1 0.00
03/04 09:00 5.4 63 0.1 49.3 0.00
03/04 08:00 3.1 67 0.2 49.3 0.00
03/04 07:00 3.1 65 -0.0 49.2 0.00
03/04 06:00 4.2 66 0.0 49.4 0.00
03/04 05:00 4.6 68 0.0 49.5 0.00
03/04 04:00 4.5 70 0.0 49.5 0.00
03/04 03:00 4.6 76 0.1 49.6 0.00
03/04 02:00 4.3 68 0.0 49.8 0.00
03/04 01:00 4.2 71 0.1 49.9 0.00
03/04 00:00 4.4 68 0.2 50.0 0.00
03/03 23:00 4.8 58 0.2 50.0 0.00
03/03 22:00 5.4 57 0.1 50.1 0.00
03/03 21:00 6.3 40 0.1 50.1 0.00
03/03 20:00 6.4 34 0.0 50.2 0.00
03/03 19:00 7.1 43 0.0 50.3 0.00
03/03 18:00 8.0 47 -0.0 50.4 0.00
03/03 17:00 10.0 43 -0.2 50.4 0.00
03/03 16:00 11.3 45 -0.2 50.6 0.00
03/03 15:00 12.6 41 -0.4 50.7 0.00
03/03 14:00 14.1 32 -0.6 50.6 0.00
03/03 13:00 13.5 36 5.3 51.0 0.00
03/03 12:00 11.6 43 5.6 51.0 0.00
03/03 11:00 9.8 47 5.7 51.3 0.00
03/03 10:00 8.6 54 5.7 51.5 0.00
03/03 09:00 5.9 54 5.9 51.6 0.00
03/03 08:00 3.4 61 6.0 51.8 0.00
03/03 07:00 3.2 64 6.0 51.9 0.00
03/03 06:00 3.5 63 5.7 52.0 0.00
03/03 05:00 3.9 64 5.7 52.1 0.00
03/03 04:00 5.0 68 5.8 52.3 0.00
03/03 03:00 6.3 72 5.8 52.5 0.00
03/03 02:00 7.1 78 5.7 52.5 0.00
03/03 01:00 7.4 79 5.0 52.5 0.00
03/03 00:00 7.7 79 5.1 52.7 0.01
.